Paris, TX

4:19 PM CST on January 19, 2017 (GMT -0600)
Cox

Weather History for KPRX - September, 2013

Change the Weather History Date:

Thursday, September 5, 2013

  Actual Average Record
Temperature  
Mean Temperature 84 °F -  
Max Temperature 98 °F 87 °F 102 °F (2012)
Min Temperature 69 °F 66 °F 55 °F (1997)
Cooling Degree Days 18    
Growing Degree Days 34 (Base 50)    
Moisture  
Dew Point 57 °F    
Average Humidity 43    
Maximum Humidity 60    
Minimum Humidity 27    
Precipitation  
Precipitation 0.00 in - - ()
Sea Level Pressure  
Sea Level Pressure 30.10 in    
Wind  
Wind Speed 8 mph (ESE)    
Max Wind Speed 13 mph    
Max Gust Speed 18 mph    
Visibility 10 miles    
Events      
Averages and records for this station are not official NWS values.
T = Trace of Precipitation, MM = Missing Value Source: NWS Daily Summary

Daily Weather History Graph

Daily Weather History Graph

Search for Another Location

Airport or City:

Trip Planner

Search our weather history database for the weather conditions in past years. The results will help you decide how hot, cold, wet, or windy it might be!

Date:

Astronomy

Sep. 05, 2013 Rise Set
Actual Time 6:58 AM CDT 7:41 PM CDT
Civil Twilight 6:33 AM CDT 8:06 PM CDT
Nautical Twilight 6:03 AM CDT 8:36 PM CDT
Astronomical Twilight 5:33 AM CDT 9:06 PM CDT
Moon 7:08 AM CDT (9/5) 7:38 PM CDT (9/5)
Length of Visible Light 13h 33m
Length of Day
12h 42m
New Moon, 0% of the Moon is Illuminated
Sep 5
New Moon
Sep 12
First Quarter
Sep 19
Full
Sep 26
Last Quarter
Oct 4
New

Hourly Weather History & Observations

Time (CDT) Temp. Heat Index Dew Point Humidity Pressure Visibility Wind Dir Wind Speed Gust Speed Precip Events Conditions
12:15 AM 77.0 °F - 57.2 °F 50% 30.08 in 10.0 mi East 6.9 mph - N/A   Clear
12:35 AM 77.0 °F - 57.2 °F 50% 30.09 in 10.0 mi East 8.1 mph - N/A   Clear
12:55 AM 77.0 °F - 57.2 °F 50% 30.09 in 10.0 mi East 8.1 mph - N/A   Clear
1:15 AM 77.0 °F - 55.4 °F 47% 30.09 in 10.0 mi East 9.2 mph - N/A   Clear
1:35 AM 77.0 °F - 55.4 °F 47% 30.10 in 10.0 mi East 9.2 mph - N/A   Clear
1:55 AM 75.2 °F - 55.4 °F 50% 30.10 in 10.0 mi East 8.1 mph - N/A   Clear
2:15 AM 75.2 °F - 53.6 °F 47% 30.10 in 10.0 mi East 9.2 mph - N/A   Clear
2:35 AM 73.4 °F - 53.6 °F 50% 30.10 in 10.0 mi East 6.9 mph - N/A   Clear
2:55 AM 73.4 °F - 53.6 °F 50% 30.10 in 10.0 mi East 8.1 mph - N/A   Clear
3:15 AM 73.4 °F - 53.6 °F 50% 30.09 in 10.0 mi East 8.1 mph - N/A   Clear
3:35 AM 73.4 °F - 53.6 °F 50% 30.09 in 10.0 mi East 9.2 mph - N/A   Partly Cloudy
3:55 AM 73.4 °F - 53.6 °F 50% 30.09 in 10.0 mi East 8.1 mph - N/A   Partly Cloudy
4:15 AM 73.4 °F - 53.6 °F 50% 30.09 in 10.0 mi East 6.9 mph - N/A   Clear
4:35 AM 71.6 °F - 53.6 °F 53% 30.10 in 10.0 mi East 6.9 mph - N/A   Clear
4:55 AM 71.6 °F - 53.6 °F 53% 30.10 in 10.0 mi East 6.9 mph - N/A   Clear
5:15 AM 71.6 °F - 53.6 °F 53% 30.10 in 10.0 mi East 6.9 mph - N/A   Partly Cloudy
5:35 AM 71.6 °F - 55.4 °F 57% 30.11 in 10.0 mi East 8.1 mph - N/A   Partly Cloudy
5:55 AM 71.6 °F - 55.4 °F 57% 30.11 in 10.0 mi East 6.9 mph - N/A   Clear
6:15 AM 69.8 °F - 55.4 °F 60% 30.12 in 10.0 mi East 6.9 mph - N/A   Clear
6:35 AM 69.8 °F - 55.4 °F 60% 30.12 in 10.0 mi East 8.1 mph - N/A   Partly Cloudy
6:55 AM 69.8 °F - 55.4 °F 60% 30.12 in 10.0 mi East 9.2 mph - N/A   Clear
7:15 AM 69.8 °F - 55.4 °F 60% 30.13 in 10.0 mi East 6.9 mph - N/A   Clear
7:35 AM 69.8 °F - 55.4 °F 60% 30.14 in 10.0 mi East 8.1 mph - N/A   Clear
7:55 AM 71.6 °F - 55.4 °F 57% 30.14 in 10.0 mi East 10.4 mph - N/A   Clear
8:15 AM 73.4 °F - 57.2 °F 57% 30.14 in 10.0 mi East 11.5 mph - N/A   Partly Cloudy
8:35 AM 75.2 °F - 57.2 °F 53% 30.15 in 10.0 mi East 11.5 mph - N/A   Partly Cloudy
8:55 AM 75.2 °F - 57.2 °F 53% 30.15 in 10.0 mi East 12.7 mph - N/A   Clear
9:15 AM 78.8 °F - 57.2 °F 47% 30.15 in 10.0 mi ESE 12.7 mph - N/A   Clear
9:35 AM 80.6 °F 81.1 °F 59.0 °F 48% 30.15 in 10.0 mi ESE 12.7 mph - N/A   Clear
9:55 AM 82.4 °F 82.5 °F 59.0 °F 45% 30.15 in 10.0 mi ESE 12.7 mph 18.4 mph N/A   Clear
10:15 AM 84.2 °F 83.8 °F 59.0 °F 42% 30.15 in 10.0 mi ESE 10.4 mph - N/A   Clear
10:35 AM 84.2 °F 83.8 °F 59.0 °F 42% 30.16 in 10.0 mi ESE 11.5 mph - N/A   Clear
10:55 AM 87.8 °F 87.6 °F 60.8 °F 40% 30.16 in 10.0 mi ESE 10.4 mph 16.1 mph N/A   Clear
11:15 AM 87.8 °F 87.6 °F 60.8 °F 40% 30.15 in 10.0 mi SSE 10.4 mph - N/A   Clear
11:35 AM 89.6 °F 89.5 °F 60.8 °F 38% 30.15 in 10.0 mi SE 6.9 mph - N/A   Clear
11:55 AM 89.6 °F 89.5 °F 60.8 °F 38% 30.15 in 10.0 mi ESE 5.8 mph - N/A   Clear
12:15 PM 91.4 °F 92.1 °F 62.6 °F 38% 30.14 in 10.0 mi East 6.9 mph - N/A   Clear
12:35 PM 91.4 °F 92.1 °F 62.6 °F 38% 30.14 in 10.0 mi East 5.8 mph 17.3 mph N/A   Clear
12:55 PM 91.4 °F 92.1 °F 62.6 °F 38% 30.13 in 10.0 mi East 6.9 mph - N/A   Clear
1:15 PM 91.4 °F 92.1 °F 62.6 °F 38% 30.12 in 10.0 mi SE 6.9 mph - N/A   Clear
1:35 PM 93.2 °F 94.1 °F 62.6 °F 36% 30.11 in 10.0 mi SW 4.6 mph - N/A   Clear
1:55 PM 93.2 °F 94.1 °F 62.6 °F 36% 30.10 in 10.0 mi East 4.6 mph - N/A   Partly Cloudy
2:15 PM 93.2 °F 93.3 °F 60.8 °F 34% 30.09 in 10.0 mi South 5.8 mph - N/A   Scattered Clouds
2:35 PM 95.0 °F 95.2 °F 60.8 °F 32% 30.09 in 10.0 mi NNE 5.8 mph 16.1 mph N/A   Partly Cloudy
2:55 PM 93.2 °F 93.3 °F 60.8 °F 34% 30.08 in 10.0 mi East 6.9 mph - N/A   Scattered Clouds
3:15 PM 96.8 °F 96.2 °F 59.0 °F 28% 30.07 in 10.0 mi Calm Calm - N/A   Clear
3:35 PM 98.6 °F 98.5 °F 59.0 °F 27% 30.07 in 10.0 mi South 5.8 mph - N/A   Clear
3:55 PM 98.6 °F 99.4 °F 60.8 °F 29% 30.06 in 10.0 mi East 10.4 mph 16.1 mph N/A   Mostly Cloudy
4:15 PM 95.0 °F 94.4 °F 59.0 °F 30% 30.06 in 10.0 mi SE 10.4 mph - N/A   Scattered Clouds
4:35 PM 96.8 °F 96.2 °F 59.0 °F 28% 30.05 in 10.0 mi East 8.1 mph 16.1 mph N/A   Scattered Clouds
4:55 PM 95.0 °F 94.4 °F 59.0 °F 30% 30.05 in 10.0 mi East 5.8 mph - N/A   Partly Cloudy
5:15 PM 93.2 °F 92.6 °F 59.0 °F 32% 30.05 in 10.0 mi ESE 10.4 mph - N/A   Scattered Clouds
5:35 PM 96.8 °F 97.1 °F 60.8 °F 30% 30.04 in 10.0 mi East 8.1 mph - N/A   Partly Cloudy
5:55 PM 93.2 °F 92.6 °F 59.0 °F 32% 30.05 in 10.0 mi ESE 10.4 mph - N/A   Clear
6:15 PM 93.2 °F 92.6 °F 59.0 °F 32% 30.04 in 10.0 mi East 10.4 mph - N/A   Clear
6:35 PM 93.2 °F 92.6 °F 59.0 °F 32% 30.04 in 10.0 mi ESE 10.4 mph - N/A   Clear
6:55 PM 93.2 °F 92.6 °F 59.0 °F 32% 30.04 in 10.0 mi ESE 9.2 mph - N/A   Clear
7:15 PM 91.4 °F 89.9 °F 57.2 °F 31% 30.04 in 10.0 mi East 9.2 mph - N/A   Clear
7:35 PM 89.6 °F 87.7 °F 55.4 °F 31% 30.05 in 10.0 mi East 6.9 mph - N/A   Clear
7:55 PM 87.8 °F 85.7 °F 53.6 °F 31% 30.05 in 10.0 mi ESE 5.8 mph - N/A   Clear
8:15 PM 84.2 °F 82.8 °F 53.6 °F 35% 30.06 in 10.0 mi ESE 6.9 mph - N/A   Clear
8:35 PM 84.2 °F 83.0 °F 55.4 °F 37% 30.06 in 10.0 mi ESE 5.8 mph - N/A   Clear
8:55 PM 82.4 °F 81.7 °F 55.4 °F 39% 30.07 in 10.0 mi ESE 5.8 mph - N/A   Clear
9:15 PM 82.4 °F 81.7 °F 55.4 °F 39% 30.07 in 10.0 mi ESE 5.8 mph - N/A   Clear
9:35 PM 80.6 °F 80.5 °F 55.4 °F 42% 30.08 in 10.0 mi East 6.9 mph - N/A   Clear
9:55 PM 80.6 °F 80.5 °F 55.4 °F 42% 30.08 in 10.0 mi ESE 4.6 mph - N/A   Clear
10:15 PM 80.6 °F 80.5 °F 55.4 °F 42% 30.09 in 10.0 mi ESE 5.8 mph - N/A   Clear
10:35 PM 78.8 °F - 55.4 °F 44% 30.10 in 10.0 mi East 6.9 mph - N/A   Clear
10:55 PM 78.8 °F - 55.4 °F 44% 30.10 in 10.0 mi East 5.8 mph - N/A   Clear
11:15 PM 77.0 °F - 55.4 °F 47% 30.10 in 10.0 mi East 5.8 mph - N/A   Clear
11:35 PM 77.0 °F - 55.4 °F 47% 30.10 in 10.0 mi East 6.9 mph - N/A   Clear
11:55 PM 77.0 °F - 55.4 °F 47% 30.09 in 10.0 mi East 8.1 mph - N/A   Clear